Home > Weather > Rehovot > Past weeks

Flag for Israel Weather for the Past 2 Weeks in Rehovot, Israel

Now
70 °F

Scattered clouds.


Feels Like: 70 °F
Forecast: 67 / 86 °F
Wind: 10 mph from South

Location: Ben Gurion International Airport

Current Time: May 2, 2016 at 9:00:01 AM

Latest Report: May 2, 2016 at 8:20 AM


Visibility: N/A

Pressure: 29.89 "Hg

Humidity: 78%

Dew Point: 63 °F

Location of RehovotLocation

Historic Weather in Rehovot — Graph

°F

Rehovot Temperature Yesterday

Maximum temperature yesterday: 93 °F (at 9:50 AM)
Minimum temperature yesterday: 64 °F (at 4:50 AM)
Average temperature yesterday: 75 °F

High & Low Weather Summary for the Past Weeks

 TemperatureHumidityPressure
High104 °F (Apr 26, 2:50 PM)94% (Apr 19, 3:20 AM)30.09 "Hg (Apr 19, 3:20 AM)
Low55 °F (Apr 18, 5:20 AM)7% (Apr 20, 11:20 AM)29.56 "Hg (Apr 25, 12:50 AM)
Average74 °F52%29.89 "Hg
* Reported Apr 17 7:20 AM — May 2 7:20 AM, Rehovot, Weather by CustomWeather, © 2016

Note: Actual official high and low records may vary slightly from our data, if they occured in-between our weather recording intervals... More about our weather records

Advertising

Rehovot Weather History for the Previous 24 Hours

Scroll right to see more
 ConditionsComfort  
Time TempWeatherWind HumidityBarometerVisibility
7:20 AM
Mon, May 2
66 °FPartly sunny.8 mph83%29.89 "HgN/A
6:50 AM66 °FPassing clouds.8 mph83%29.89 "HgN/A
6:20 AM66 °FPassing clouds.7 mph83%29.86 "HgN/A
5:50 AM66 °FPassing clouds.8 mph83%29.86 "HgN/A
5:20 AM72 °FPassing clouds.9 mph73%29.86 "HgN/A
4:50 AM66 °FPassing clouds.6 mph83%29.86 "HgN/A
4:20 AM66 °FPassing clouds.5 mph83%29.86 "HgN/A
3:50 AM68 °FPassing clouds.5 mph78%29.86 "HgN/A
3:20 AM68 °FPassing clouds.8 mph83%29.86 "HgN/A
2:50 AM68 °FPassing clouds.7 mph83%29.86 "HgN/A
2:20 AM68 °FPassing clouds.6 mph83%29.86 "HgN/A
1:50 AM68 °FPassing clouds.7 mph83%29.86 "HgN/A
1:20 AM68 °FPassing clouds.6 mph78%29.86 "HgN/A
12:50 AM70 °FPassing clouds.6 mph73%29.86 "HgN/A
12:20 AM70 °FPassing clouds.6 mph78%29.86 "HgN/A
11:50 PM
Sun, May 1
70 °FPassing clouds.8 mph78%29.86 "HgN/A
11:20 PM72 °FPassing clouds.7 mph73%29.86 "HgN/A
10:50 PM72 °FPassing clouds.8 mph73%29.86 "HgN/A
10:20 PM72 °FPassing clouds.9 mph73%29.86 "HgN/A
9:50 PM70 °FPassing clouds.9 mph78%29.86 "HgN/A
9:20 PM70 °FPassing clouds.7 mph78%29.83 "HgN/A
8:50 PM72 °FPassing clouds.7 mph73%29.83 "HgN/A
8:20 PM72 °FScattered clouds.7 mph73%29.83 "HgN/A
7:50 PM72 °FScattered clouds.8 mph73%29.80 "HgN/A
7:20 PM72 °FScattered clouds.8 mph73%29.80 "Hg6 mi
6:50 PM72 °FPassing clouds.7 mph78%29.80 "Hg6 mi
6:20 PM73 °FPassing clouds.7 mph69%29.80 "Hg6 mi
5:50 PM75 °FPassing clouds.9 mph65%29.80 "Hg5 mi
5:20 PM75 °FPassing clouds.9 mph65%29.80 "Hg4 mi
4:50 PM75 °FPassing clouds.8 mph65%29.80 "Hg4 mi
4:20 PM75 °FClear.9 mph65%29.77 "Hg4 mi
3:50 PM75 °FClear.10 mph65%29.77 "Hg4 mi
3:20 PM75 °FClear.10 mph65%29.77 "Hg4 mi
2:50 PM75 °FClear.12 mph65%29.80 "Hg4 mi
2:20 PM79 °FClear.10 mph54%29.80 "Hg4 mi
1:50 PM81 °FClear.12 mph51%29.77 "Hg4 mi
1:20 PM79 °FClear.10 mph58%29.77 "Hg5 mi
12:50 PM77 °FClear.16 mph65%29.77 "Hg5 mi
12:20 PM84 °FSunny.17 mph48%29.77 "Hg10 mi
11:50 AM84 °FSunny.20 mph29%29.77 "Hg10 mi
11:20 AM90 °FSunny.17 mph17%29.77 "Hg10 mi
10:50 AM93 °FSunny.17 mph12%29.74 "Hg10 mi
9:50 AM93 °FSunny.7 mph15%29.74 "Hg10 mi
9:20 AM90 °FSunny.2 mph20%29.74 "Hg10 mi
Weather by CustomWeather, © 2016

See weather overviewHow to use our weather pages